Temp_Advection
nan nan nan nan nan nan nan nan nan nan nan nan nan nan nan nan nan nan nan nan nan nan nan nan nan nan nan nan nan nan nan nan nan nan nan nan nan nan nan nan nan nan nan nan nan nan nan
nan -0 -0 -0 -0 0 -0 -0 -0 -0 -0 -0 -0 -1 -1 -1 -1 -0 0 -0 -0 0 0 0 0 0 0 -0 -0 -0 -0 0 -0 0 0 0 0 0 0 0 0 0 -0 -0 -0 -0 nan
nan -0 -0 -0 -0 -0 -0 -0 -0 -0 -0 -0 -0 -0 -1 -1 -1 -0 -0 -0 0 0 0 0 0 0 -0 -0 0 0 0 -0 0 0 0 -0 0 0 0 0 0 -0 -0 -1 -0 -0 nan
nan -0 0 -0 -0 -0 -0 -0 -0 -0 -0 -0 -0 -0 -1 -1 -1 -1 -0 -0 0 0 0 0 0 0 -0 0 0 0 0 0 0 0 0 0 0 0 0 0 -0 -0 -0 -0 0 0 nan
nan -0 0 0 0 0 -0 -0 -0 -0 -0 -0 -0 -0 -0 -1 -1 -1 -0 0 1 0 0 0 0 -0 -0 0 -0 0 0 0 0 0 0 0 0 -0 0 -0 -0 -0 -0 0 -0 -0 nan
nan 0 -0 0 -0 0 0 -0 -0 -0 -0 -0 -0 -0 -0 -0 -1 -1 -0 0 0 1 0 -0 -0 -0 0 0 0 0 0 0 0 -0 -0 0 0 0 -0 -0 -0 0 0 -0 -0 0 nan
nan -0 -0 -0 -0 -0 -0 -0 -0 -0 -0 -0 0 -1 -1 -1 -1 -1 -0 1 -0 -0 -0 0 -0 0 -0 0 0 0 0 -0 -0 -0 -0 0 0 -0 -0 -0 0 -0 -0 -0 -0 0 nan
nan -0 -0 -0 -0 -0 0 -0 -0 -0 -0 -0 -0 -0 -0 -0 -0 -0 -1 -0 -0 -0 -0 0 0 0 0 0 -0 -0 0 0 -0 0 0 -0 -1 -1 0 0 0 -0 -0 -1 -0 0 nan
nan -0 -0 -0 -0 -0 0 0 -0 -0 -0 -0 -0 -0 -0 -0 -1 -0 -0 -1 0 1 -0 -0 0 0 0 -0 -0 -0 -0 0 0 0 0 -0 -0 0 0 0 -0 -0 -0 -0 -0 -1 nan
nan -0 -1 -0 -0 -0 -0 0 0 -0 -0 -0 -0 -0 -0 -1 -1 -0 -1 -1 0 1 0 -0 0 0 0 -0 0 0 0 0 0 -0 0 -0 0 0 0 -0 -0 -0 -0 1 0 -0 nan
nan -0 -0 -0 -0 -0 -0 -0 -0 0 -0 -0 -0 -0 -0 -0 -1 -1 -0 -0 0 1 -0 -0 -0 0 0 -0 -0 0 0 0 0 0 0 -0 0 -0 -0 -0 -0 -0 0 0 0 0 nan
nan -0 -0 -0 -0 -0 -0 -0 -0 -0 -0 0 -0 -1 -0 -0 -1 -1 -0 1 0 0 -0 0 -0 -0 -0 0 -0 -0 -0 0 0 0 0 0 -0 -0 -0 0 0 -0 0 0 0 0 nan
nan 0 -0 -0 -0 -0 -0 -0 -0 -0 -0 -0 0 0 -0 -0 -1 -0 0 1 0 -1 -0 -0 -0 -0 -0 -0 0 -0 -0 0 -0 -0 -0 -0 -0 0 0 0 -0 0 0 -0 0 -0 nan
nan 0 -0 -0 -0 -0 -0 -0 -0 -0 0 0 -0 0 -0 -0 -0 0 0 -0 -0 0 -0 -0 -0 -0 -0 -0 -0 -0 -0 -0 -0 -0 -0 -0 0 0 0 -0 -0 0 0 -0 -0 -1 nan
nan -0 -0 -0 -0 -0 -0 -0 -0 -0 -0 0 0 0 0 -0 -0 -0 0 -0 0 0 -0 -0 -0 -0 0 0 -0 -0 -0 -0 -0 -0 -0 -0 -0 -0 -0 0 0 -0 -0 -0 -0 0 nan
nan -0 0 0 -0 0 -0 -0 -0 -0 -0 0 -0 0 -0 -0 0 0 0 0 -0 0 0 -0 -0 -0 -0 0 0 -0 -0 -0 -0 -0 -0 -0 0 -0 0 0 -0 -0 0 0 0 -0 nan
nan 0 0 0 0 0 -0 -0 -0 -0 0 0 0 0 0 -0 -0 1 -0 0 0 0 0 -0 -0 0 -0 -0 0 -0 -0 0 0 0 1 0 0 0 0 -1 -0 -0 0 -0 -0 -0 nan
nan 0 0 -0 -0 -0 -0 -0 0 -0 0 0 -0 0 -0 -0 0 -0 0 -0 0 0 0 0 0 -0 -0 -0 0 -0 0 0 0 -0 0 0 0 0 -1 -1 -0 0 0 0 0 0 nan
nan -0 0 -0 -0 -0 -0 0 0 -0 0 0 -0 0 0 -0 -0 -0 -0 0 0 0 0 0 0 0 -0 -0 -0 0 0 0 0 -0 -0 0 0 -0 -0 0 0 0 -0 1 1 -0 nan
nan -0 0 -0 -0 -0 -0 0 0 0 0 -0 0 0 -0 0 0 0 -0 0 0 0 0 0 0 0 -0 -0 -0 0 -0 0 -0 0 0 0 0 -0 -1 -0 0 0 0 1 0 -1 nan
nan -0 -0 -0 -0 -0 -0 0 0 0 0 -0 0 0 -0 0 0 0 -0 -0 -0 0 0 0 0 0 -0 -0 -0 -0 -0 0 -0 -0 -0 0 0 -0 -1 -0 1 0 0 1 -0 -1 nan
nan -0 -0 -0 -0 -0 0 0 -0 -0 -0 -0 0 -0 0 0 0 0 -0 0 -0 0 0 0 0 0 0 0 -0 -0 -0 -0 -0 -0 0 0 0 0 -0 -1 0 0 -0 0 -0 -1 nan
nan -0 -0 -0 -0 -0 0 0 -1 -0 -1 -0 -0 0 -0 0 0 0 -0 -0 0 -0 -0 0 0 -0 0 -0 -0 0 0 -0 0 0 0 0 0 -0 -1 -0 1 0 0 0 -0 -0 nan
nan -0 -0 -0 0 0 -0 -0 -0 -0 -0 0 0 -0 -0 0 -0 0 0 0 0 0 -0 -0 0 0 -0 0 -0 -0 -0 0 0 -0 0 -0 -0 -0 -0 -1 -0 0 0 0 0 -0 nan
nan -0 -0 -0 0 -0 -0 -0 0 -0 0 0 0 -0 -0 0 -0 0 -0 0 -0 0 0 -0 0 0 -0 -0 -0 -0 -0 -0 -0 -0 0 0 0 -0 -0 -0 -1 0 0 0 -0 0 nan
nan 0 -0 -0 -0 -0 -0 -0 -0 0 -0 0 -0 -0 -0 -0 -0 -0 -0 0 -0 -0 0 0 0 0 -0 -0 0 -0 -0 0 -0 -0 -0 0 0 -0 -0 -0 -0 -0 0 0 -0 0 nan
nan 1 -0 0 -0 -0 -0 -0 0 -0 -0 -0 -0 -0 -0 -0 -1 0 0 0 0 0 -0 -0 -0 0 0 0 0 -0 -0 -0 -0 0 -0 -0 -0 -0 -0 -0 -0 0 0 -0 0 -0 nan
nan 0 0 0 0 0 -0 -1 -0 -0 -0 -1 -0 -0 -0 -1 -1 -0 0 -0 -0 -0 -0 -0 -0 -0 -0 0 -0 -0 -0 -0 -0 -0 -0 -0 -0 -0 -0 -0 -0 0 -0 -0 -0 -0 nan
nan nan nan nan nan nan nan nan nan nan nan nan nan nan nan nan nan nan nan nan nan nan nan nan nan nan nan nan nan nan nan nan nan nan nan nan nan nan nan nan nan nan nan nan nan nan nan
Wind_Speed
23 23 24 24 24 25 23 24 23 25 26 27 24 18 16 18 20 19 20 15 14 11 12 9 10 12 11 9 6 4 2 5 13 20 16 12 10 8 8 5 7 12 11 11 12 12 16
23 22 24 25 24 25 26 26 25 26 28 26 27 22 17 18 21 20 21 16 13 11 12 9 9 10 10 11 9 14 4 2 7 18 17 14 8 7 4 5 8 2 6 11 11 17 19
24 24 22 24 25 25 26 27 28 28 28 26 28 24 22 18 16 21 19 22 14 11 13 10 7 8 9 10 10 13 14 12 7 11 14 16 10 7 7 4 4 6 10 12 17 15 13
22 22 22 25 26 28 25 27 27 27 28 26 27 24 22 20 19 18 19 25 16 14 14 11 8 7 6 8 17 9 12 11 10 9 11 14 12 5 3 1 3 5 5 5 2 2 8
23 27 26 27 26 28 26 27 26 26 28 26 25 25 24 22 20 12 18 27 20 16 15 11 7 6 4 7 11 12 14 12 13 12 11 11 9 4 4 5 5 8 7 9 9 4 6
27 28 26 27 27 29 27 29 25 25 28 27 27 25 24 19 23 17 6 22 19 20 15 12 6 4 8 3 7 12 21 17 12 13 9 6 4 5 7 8 5 5 7 7 10 3 6
28 28 28 29 30 31 29 29 26 26 27 28 25 23 24 19 18 26 12 26 21 8 17 9 11 3 7 8 9 11 20 15 12 13 10 8 6 11 14 14 9 2 6 10 9 7 15
28 29 30 31 30 30 30 29 26 27 26 27 23 24 22 20 17 20 25 14 33 11 9 14 10 8 10 11 5 11 20 12 13 12 10 5 12 13 6 10 12 14 16 16 14 13 11
29 30 31 31 32 30 30 28 27 26 26 26 24 26 21 18 22 26 24 16 33 16 4 11 17 10 8 11 5 16 20 10 12 11 16 8 3 1 12 12 12 15 17 14 16 15 18
29 32 33 32 31 31 30 29 26 24 25 24 26 19 22 20 20 11 20 20 26 10 3 8 10 8 15 8 4 12 20 8 4 12 10 9 10 6 7 9 12 14 8 13 13 10 6
30 32 33 32 34 31 29 29 27 26 26 28 28 26 25 19 17 15 7 18 23 13 7 10 7 9 16 15 14 8 15 3 7 9 6 3 6 9 12 11 12 7 4 7 9 11 11
33 33 33 35 31 30 29 28 26 26 30 28 29 35 28 22 16 19 13 27 23 4 6 7 8 10 15 11 7 9 13 3 5 5 6 7 2 5 6 8 13 3 7 9 11 8 8
31 29 32 32 31 30 29 28 27 31 29 31 38 45 32 17 15 14 10 19 5 6 7 9 9 13 15 11 9 11 13 9 6 5 7 5 16 6 8 9 8 11 5 3 4 6 9
34 34 34 32 30 30 29 28 28 30 30 33 43 25 6 17 20 12 13 3 4 5 6 5 13 16 8 17 6 11 13 10 10 4 3 4 4 15 11 16 4 18 14 5 7 10 12
34 34 32 31 29 29 30 30 31 30 27 32 37 9 8 15 21 14 13 4 2 6 11 13 14 9 6 12 6 7 10 8 11 14 6 5 5 3 7 8 12 5 9 13 18 20 13
32 31 32 30 30 31 31 33 31 28 33 35 32 2 8 13 18 17 3 3 1 3 17 16 7 7 9 13 8 10 11 6 8 16 15 2 4 7 3 8 12 14 0 5 6 6 18
30 30 31 31 31 33 31 31 28 31 33 32 22 2 12 14 19 10 1 2 4 13 12 3 7 8 8 12 8 12 6 3 8 11 17 7 5 3 3 12 13 10 8 6 6 9 8
30 30 29 30 32 32 32 28 29 32 30 37 5 1 18 21 4 2 1 1 6 6 1 4 8 10 13 13 11 9 9 5 9 12 10 12 5 8 14 14 14 16 16 19 9 12 7
29 30 29 29 31 32 32 27 31 37 42 16 1 3 7 15 3 4 2 1 3 2 3 3 4 3 6 9 6 8 5 3 12 12 12 11 5 4 5 3 8 10 19 22 18 10 20
29 29 29 29 30 29 33 27 30 40 30 8 3 3 4 2 2 8 8 3 5 5 3 7 6 6 7 6 2 7 7 4 13 15 6 12 6 8 10 13 8 8 12 19 18 11 18
28 28 29 29 28 28 31 26 29 39 21 9 5 4 4 3 3 9 3 3 8 3 3 4 4 3 5 4 5 4 6 3 4 10 9 7 6 11 20 23 22 23 26 20 22 28 17
26 27 26 27 27 28 30 26 27 34 29 18 6 5 6 4 9 10 2 3 3 4 3 3 3 8 7 3 5 3 5 6 5 10 12 6 7 4 16 20 23 23 23 21 18 24 26
26 27 24 25 26 25 28 27 25 28 31 11 18 6 1 6 6 7 6 7 6 6 3 5 6 5 6 5 8 10 12 7 5 6 13 5 2 2 8 14 22 9 7 11 7 12 20
24 26 25 22 24 23 25 28 24 23 23 22 16 8 3 4 6 5 6 5 8 7 4 3 6 3 2 1 5 8 14 16 15 14 12 6 4 2 8 12 4 5 5 10 13 16 17
23 23 23 22 22 23 22 24 24 22 21 21 7 3 4 1 8 7 5 5 5 5 3 3 3 3 4 3 3 5 3 4 7 13 16 15 7 3 3 4 11 4 8 6 4 6 5
20 21 21 20 20 21 21 22 23 22 19 15 12 11 4 3 8 10 8 8 7 4 2 3 4 2 1 2 2 3 2 1 1 3 2 8 11 4 1 4 4 7 6 2 2 3 12
19 20 20 20 20 20 20 20 21 22 18 17 9 11 5 4 7 17 11 9 7 6 3 1 2 1 6 3 3 4 3 1 2 3 4 4 2 6 6 5 6 4 5 4 5 7 16
18 19 19 20 19 19 18 18 20 19 19 16 13 7 12 6 8 14 16 7 6 7 4 5 3 2 2 2 2 3 3 2 3 2 3 6 5 4 4 4 3 3 3 3 4 11 10
19 18 19 19 20 19 20 20 18 18 16 16 13 14 14 10 5 11 12 15 15 10 9 10 0 4 5 3 3 2 3 3 3 2 3 4 5 2 5 3 2 3 8 8 7 8 6
Wind_Direction
355 355 350 349 348 348 349 345 341 338 338 333 330 320 303 300 266 265 248 260 280 262 242 229 220 211 192 213 218 185 206 208 202 197 191 178 185 195 217 208 217 235 254 252 253 254 257
352 351 345 349 346 348 343 344 342 342 339 331 328 320 305 320 272 260 244 245 270 249 232 220 215 207 201 220 232 227 215 224 200 198 189 184 195 208 218 219 230 266 265 266 267 261 262
351 352 348 343 346 338 335 335 334 335 334 330 325 317 296 305 290 260 242 230 245 232 218 208 208 206 214 221 238 225 227 238 183 184 189 193 188 180 177 195 226 272 281 276 262 255 259
342 340 336 333 335 330 330 331 329 328 328 325 321 314 306 286 305 255 238 229 223 211 204 203 203 211 237 235 235 201 188 185 189 203 197 198 185 169 198 182 225 253 265 281 86 273 237
336 330 331 338 332 325 328 324 324 325 325 321 311 310 306 290 299 276 233 228 200 192 187 191 197 197 246 233 226 206 188 168 155 141 144 149 151 172 159 232 248 216 256 234 281 249 280
334 332 332 328 324 326 330 321 318 320 320 315 311 299 308 292 278 265 209 213 182 177 174 163 167 218 229 203 197 191 183 177 160 149 132 156 170 209 217 201 236 230 226 234 251 176 273
330 331 330 328 323 327 326 322 320 319 319 307 307 305 307 302 273 257 257 183 153 156 177 191 185 165 139 154 148 168 171 157 161 190 202 191 205 215 221 222 238 290 265 259 256 272 302
332 327 325 326 325 325 326 324 321 319 315 316 317 314 306 303 282 276 255 212 166 183 184 196 153 167 151 157 133 160 162 161 170 192 172 179 233 237 239 235 239 249 261 265 280 274 273
328 330 327 324 324 324 329 326 323 324 322 327 318 317 309 303 295 283 265 273 187 153 112 176 199 185 188 177 175 178 174 168 183 173 194 203 111 208 211 222 232 242 253 269 276 295 287
332 330 325 325 327 330 331 326 326 324 327 325 313 317 319 311 300 299 278 255 190 165 136 164 187 210 190 161 214 177 175 166 166 197 189 237 237 204 186 226 230 263 262 257 259 276 276
337 333 333 328 331 332 334 328 330 334 330 319 311 301 301 299 279 273 251 223 182 143 182 137 150 154 168 173 136 170 181 171 174 159 167 152 177 193 221 235 216 237 215 243 254 258 280
340 337 334 334 336 336 335 333 335 330 325 316 308 301 290 290 267 247 246 183 153 102 206 155 135 158 155 187 149 133 173 173 173 176 229 252 191 211 223 219 207 112 228 256 261 263 248
344 340 338 341 339 340 335 338 338 333 328 318 311 313 287 236 237 225 202 142 118 206 166 150 159 154 158 167 143 154 173 175 169 165 207 236 230 206 195 229 214 220 204 253 233 209 244
335 338 342 343 344 340 343 343 338 333 327 327 335 339 226 204 205 196 164 154 161 123 129 159 144 151 165 153 158 164 166 190 213 191 139 230 216 195 196 216 210 209 209 223 252 259 283
340 344 345 347 349 345 346 344 343 336 330 335 341 5 121 164 173 175 160 188 115 163 139 139 134 151 126 173 167 151 181 198 198 197 201 182 257 201 215 204 209 185 219 242 270 267 268
343 349 347 351 349 349 347 348 343 340 338 344 340 359 129 155 171 150 118 67 309 140 134 141 128 186 162 164 162 177 182 204 209 197 207 183 263 214 182 210 241 225 313 209 207 260 253
345 349 351 349 351 351 352 346 346 342 343 346 357 32 135 152 155 99 227 118 112 143 123 142 134 139 155 164 174 180 178 179 209 193 193 183 213 145 167 207 212 199 227 211 273 254 266
346 349 350 351 351 354 354 351 348 344 347 341 328 115 143 149 93 156 172 157 129 145 93 101 100 102 149 163 172 190 206 244 183 154 188 204 219 243 242 240 228 236 238 224 232 235 221
348 348 351 353 354 354 352 353 348 346 353 345 77 86 154 168 139 117 171 91 90 151 61 96 103 106 161 160 155 193 197 229 177 186 181 172 213 285 252 199 228 242 242 235 236 260 247
347 348 352 354 354 354 355 355 355 360 8 43 107 108 73 89 97 119 144 75 105 46 76 73 104 101 124 150 143 178 215 216 196 205 185 176 226 227 256 282 309 251 254 236 220 237 256
345 350 352 354 357 354 356 360 0 8 18 22 10 75 135 142 143 143 85 89 126 113 65 92 110 145 148 140 164 217 203 192 187 204 190 211 248 244 257 275 279 269 266 256 225 232 238
355 352 353 350 353 354 359 5 4 8 23 38 42 5 16 64 146 167 95 157 127 98 127 150 141 155 176 159 202 195 196 208 219 190 198 218 273 285 279 271 264 271 266 258 241 240 248
352 350 354 349 355 0 360 6 8 10 16 14 5 30 318 133 166 173 169 172 169 136 64 99 170 132 217 234 263 265 236 233 229 201 204 202 221 285 273 316 309 274 263 257 241 236 236
351 350 352 352 354 359 0 2 8 10 7 8 357 341 321 158 184 169 164 162 195 197 116 142 125 153 156 228 291 269 251 250 242 237 215 191 176 222 289 307 279 333 249 258 268 264 241
351 348 350 352 353 357 0 360 7 6 4 2 29 340 319 151 209 205 199 182 108 113 104 154 168 182 294 292 279 301 246 220 233 227 226 226 234 267 283 294 280 332 344 330 288 353 316
354 352 351 352 351 354 355 357 360 2 5 13 40 20 336 321 218 202 203 197 192 190 161 200 184 168 258 248 211 256 265 309 144 174 40 218 224 213 304 295 303 313 338 289 259 21 359
353 353 353 352 354 353 352 355 349 356 2 356 358 10 349 267 260 195 192 183 179 171 129 140 103 127 199 212 237 229 249 287 259 231 165 138 183 230 236 261 271 258 295 288 350 338 343
340 346 346 347 350 349 345 339 339 347 354 349 338 346 6 290 278 201 206 169 159 172 145 143 153 174 155 222 241 235 244 243 267 233 189 204 191 208 212 246 293 193 260 322 340 321 324
326 332 336 340 342 343 342 339 336 333 341 344 332 318 329 245 265 212 209 215 216 228 198 181 350 139 159 223 226 301 237 225 265 270 183 227 231 289 229 259 356 259 265 289 307 292 300
Height
1523 1520 1518 1513 1510 1506 1502 1499 1495 1491 1487 1483 1480 1479 1478 1477 1476 1477 1477 1478 1479 1479 1479 1479 1481 1482 1483 1484 1484 1484 1486 1487 1487 1490 1494 1497 1500 1501 1500 1500 1503 1500 1496 1498 1498 1498 1498
1523 1521 1517 1512 1509 1504 1502 1497 1493 1489 1485 1482 1477 1474 1473 1472 1471 1472 1473 1475 1476 1476 1477 1478 1479 1479 1481 1482 1480 1482 1484 1486 1487 1488 1492 1495 1498 1500 1500 1501 1501 1499 1498 1496 1495 1495 1494
1523 1518 1514 1511 1507 1503 1499 1495 1491 1487 1483 1479 1475 1472 1469 1468 1465 1467 1468 1469 1472 1472 1475 1475 1477 1476 1478 1477 1478 1479 1482 1485 1487 1488 1491 1493 1496 1499 1500 1500 1500 1499 1496 1491 1489 1489 1490
1518 1514 1510 1506 1503 1499 1495 1491 1487 1483 1479 1476 1472 1468 1466 1463 1461 1461 1463 1463 1467 1470 1472 1473 1473 1475 1475 1471 1475 1478 1480 1484 1486 1488 1491 1493 1495 1498 1499 1500 1498 1496 1494 1489 1482 1486 1485
1516 1510 1506 1502 1499 1494 1490 1486 1482 1478 1475 1471 1467 1464 1460 1458 1456 1454 1457 1460 1461 1465 1468 1469 1471 1474 1472 1470 1473 1475 1479 1483 1486 1489 1491 1493 1496 1497 1498 1497 1495 1492 1485 1488 1485 1483 1482
1513 1510 1504 1499 1493 1489 1485 1480 1476 1472 1468 1465 1461 1457 1454 1452 1451 1449 1451 1453 1456 1460 1465 1467 1470 1475 1469 1469 1470 1472 1477 1481 1486 1489 1493 1495 1495 1493 1493 1494 1483 1480 1489 1486 1484 1480 1482
1509 1504 1500 1495 1489 1484 1480 1475 1470 1466 1462 1458 1454 1451 1449 1446 1446 1444 1445 1449 1453 1459 1460 1458 1460 1464 1465 1467 1470 1472 1475 1479 1485 1488 1488 1492 1493 1489 1485 1487 1486 1489 1487 1484 1481 1482 1482
1506 1501 1495 1490 1483 1479 1474 1469 1464 1460 1456 1452 1449 1446 1444 1441 1440 1439 1438 1433 1437 1444 1454 1456 1458 1462 1464 1466 1470 1472 1476 1479 1482 1482 1487 1492 1488 1483 1487 1487 1489 1489 1487 1482 1479 1480 1482
1502 1497 1491 1484 1478 1473 1468 1463 1458 1454 1450 1446 1444 1441 1439 1437 1434 1431 1430 1433 1440 1441 1445 1453 1456 1460 1463 1466 1467 1470 1475 1477 1478 1481 1482 1478 1481 1482 1487 1488 1489 1486 1484 1482 1483 1480 1479
1497 1492 1485 1480 1473 1468 1463 1457 1452 1449 1445 1442 1440 1437 1435 1434 1433 1428 1424 1430 1436 1437 1447 1450 1453 1454 1459 1464 1466 1468 1473 1476 1478 1476 1480 1480 1479 1485 1487 1486 1486 1483 1480 1482 1485 1486 1479
1493 1487 1481 1474 1468 1463 1458 1452 1447 1443 1440 1437 1434 1431 1430 1431 1427 1427 1426 1429 1433 1441 1436 1446 1451 1452 1454 1460 1461 1467 1470 1473 1472 1474 1479 1476 1481 1483 1486 1482 1485 1481 1482 1482 1481 1480 1480
1490 1483 1476 1470 1464 1458 1453 1447 1443 1438 1434 1429 1426 1422 1421 1421 1422 1422 1423 1425 1430 1446 1430 1441 1445 1447 1453 1458 1460 1464 1469 1473 1474 1475 1477 1474 1480 1479 1476 1479 1481 1481 1482 1482 1480 1482 1476
1486 1479 1473 1466 1459 1454 1448 1442 1438 1433 1427 1422 1414 1404 1403 1412 1415 1420 1425 1423 1432 1419 1429 1437 1438 1444 1448 1453 1457 1459 1465 1469 1468 1476 1475 1473 1471 1474 1477 1479 1480 1480 1483 1473 1476 1478 1451
1483 1476 1469 1462 1456 1450 1444 1439 1434 1428 1423 1416 1405 1396 1392 1403 1411 1416 1421 1427 1415 1411 1417 1428 1432 1440 1442 1449 1453 1456 1461 1465 1466 1467 1470 1468 1461 1467 1470 1471 1467 1473 1472 1462 1456 1439 1434
1480 1473 1466 1460 1454 1448 1441 1436 1429 1424 1418 1411 1403 1399 1397 1401 1410 1413 1422 1414 1410 1408 1414 1422 1435 1438 1442 1446 1445 1453 1457 1458 1458 1464 1468 1470 1468 1466 1467 1467 1470 1471 1473 1465 1462 1448 1453
1478 1472 1465 1458 1452 1445 1439 1433 1427 1421 1415 1409 1401 1399 1401 1404 1409 1413 1422 1411 1412 1413 1413 1419 1424 1431 1435 1442 1443 1448 1451 1449 1452 1454 1458 1461 1465 1460 1463 1469 1466 1464 1463 1468 1467 1453 1434
1477 1470 1464 1457 1450 1444 1437 1431 1425 1419 1413 1407 1401 1400 1403 1407 1412 1417 1417 1417 1416 1419 1414 1418 1423 1427 1428 1435 1439 1443 1443 1448 1449 1451 1457 1459 1463 1462 1466 1462 1450 1462 1463 1463 1456 1443 1432
1475 1468 1462 1456 1449 1442 1436 1429 1423 1417 1411 1404 1401 1402 1407 1409 1419 1421 1416 1417 1417 1417 1417 1417 1420 1423 1427 1434 1439 1441 1442 1445 1448 1452 1455 1456 1459 1457 1451 1442 1444 1441 1441 1445 1447 1435 1432
1473 1467 1461 1455 1448 1441 1435 1428 1422 1414 1405 1400 1401 1404 1407 1413 1411 1415 1419 1415 1415 1417 1416 1417 1421 1424 1429 1432 1438 1439 1443 1445 1448 1448 1448 1454 1458 1455 1434 1440 1441 1443 1432 1431 1436 1436 1421
1471 1466 1460 1454 1448 1441 1435 1428 1422 1413 1402 1400 1402 1405 1411 1413 1413 1412 1413 1414 1416 1418 1420 1420 1424 1426 1428 1432 1435 1440 1442 1443 1444 1446 1449 1451 1445 1446 1429 1423 1428 1437 1430 1428 1432 1423 1403
1470 1465 1459 1453 1448 1441 1435 1428 1423 1415 1406 1403 1400 1407 1411 1412 1415 1413 1413 1415 1417 1419 1420 1422 1425 1425 1427 1431 1434 1436 1439 1441 1443 1444 1447 1449 1447 1444 1435 1430 1429 1425 1418 1418 1419 1405 1407
1469 1464 1459 1454 1448 1441 1435 1429 1423 1419 1412 1409 1410 1409 1408 1408 1414 1413 1417 1418 1418 1420 1421 1423 1422 1425 1428 1428 1430 1432 1435 1438 1435 1440 1443 1443 1438 1438 1428 1423 1415 1411 1405 1403 1404 1401 1394
1468 1463 1459 1453 1448 1442 1436 1431 1427 1421 1416 1415 1417 1416 1417 1417 1418 1416 1416 1417 1419 1420 1425 1424 1426 1427 1430 1430 1431 1433 1433 1433 1434 1434 1437 1441 1441 1439 1417 1407 1402 1398 1395 1393 1392 1391 1389
1466 1462 1457 1453 1448 1443 1438 1433 1429 1425 1423 1421 1419 1417 1415 1415 1415 1414 1416 1418 1419 1421 1422 1426 1427 1428 1431 1431 1431 1431 1430 1429 1429 1429 1430 1434 1439 1440 1422 1413 1394 1389 1388 1387 1385 1380 1381
1464 1460 1456 1451 1448 1443 1439 1435 1431 1427 1424 1420 1419 1419 1418 1414 1416 1417 1417 1419 1421 1422 1424 1425 1427 1429 1429 1430 1430 1427 1422 1423 1418 1421 1423 1427 1431 1428 1421 1409 1393 1386 1390 1386 1383 1373 1371
1461 1458 1455 1450 1446 1443 1439 1436 1432 1429 1426 1422 1420 1419 1419 1417 1413 1415 1417 1418 1419 1422 1425 1425 1426 1427 1429 1430 1428 1427 1414 1412 1412 1416 1421 1422 1425 1427 1422 1412 1397 1386 1385 1385 1382 1370 1371
1460 1456 1453 1449 1445 1441 1438 1435 1431 1427 1424 1422 1421 1420 1418 1417 1410 1412 1413 1415 1418 1420 1421 1424 1424 1427 1428 1426 1425 1423 1417 1413 1408 1408 1415 1420 1424 1419 1418 1412 1392 1385 1384 1384 1375 1376 1372
1459 1454 1451 1447 1443 1439 1437 1434 1431 1427 1424 1423 1421 1419 1420 1416 1409 1409 1411 1412 1415 1416 1416 1423 1426 1426 1427 1428 1426 1420 1416 1409 1409 1405 1404 1403 1408 1411 1406 1405 1394 1384 1383 1380 1378 1375 1373
1457 1453 1449 1445 1441 1437 1434 1432 1429 1426 1425 1422 1419 1417 1415 1414 1408 1407 1409 1411 1413 1414 1417 1419 1420 1420 1423 1425 1422 1420 1415 1411 1406 1398 1405 1404 1397 1392 1393 1383 1380 1381 1379 1378 1378 1377 1374